Location: Silverdale
(47.6506°N, 122.6941°W)
Time: 00:21:59
(UTC+00:00)

A-11 Canister half - Pass Details

Date: 07 October 2022
Orbit: 1524 x 1685 km, 47.3° (Epoch: 05 December)

Event Time Altitude Azimuth Distance (km) Brightness Sun altitude
Rises 06:21:01 0° 287° (WNW) 4,734 12.1 -43.0°
Reaches altitude 10° 06:25:32 10° 269° (W) 3,774 11.3 -43.4°
Enters shadow 06:29:17 16° 245° (WSW) 3,343 10.7 -43.7°
